User: anonymous   Login
Location: Canazei
(46.4667°N, 11.7667°E)
Time: 20:24:28
(UTC+00:00)
Language:

ADEOS II - Orbit

View from above orbital plane
View from above orbital plane
View from above satellite
View from above satellite

Ground track
Ground track

The orbit data is extracted from the following two-line orbital elements,

1 27597U 02056A   21172.58037147  .00000012  00000-0  22631-4 0  9992
2 27597  98.5647 117.8106 0001519  44.4147 315.7156 14.27504558964474
Epoch (UTC): 21 June 2021 13:55:44
Eccentricity: 0.0001519
inclination: 98.5647°
perigee height: 799 km
apogee height: 801 km
right ascension of ascending node: 117.8106°
argument of perigee: 44.4147°
revolutions per day: 14.27504558
mean anomaly at epoch: 315.7156°
orbit number at epoch: 96447

The dashed part of the orbit path shows where the satellite is in the earth's shadow,  

DLR